Dundee, United Kingdom

1:22 PM BST on April 24, 2017 (GMT +0100)
Dundee

Weather History for EGPN - November, 2013

Change the Weather History Date:

Thursday, November 14, 2013

  Actual Average Record
Temperature  
Mean Temperature 44 °F -  
Max Temperature 48 °F 45 °F 64 °F (2008)
Min Temperature 39 °F 38 °F 33 °F (2001)
Degree Days  
Heating Degree Days 22    
Moisture  
Dew Point 34 °F    
Average Humidity 68    
Maximum Humidity 81    
Minimum Humidity 53    
Precipitation  
Precipitation 0.00 in - - ()
Sea Level Pressure  
Sea Level Pressure 30.21 in    
Wind  
Wind Speed 13 mph ()    
Max Wind Speed 22 mph    
Max Gust Speed 26 mph    
Visibility 6.2 miles    
Events      
Averages and records for this station are not official NWS values.
T = Trace of Precipitation, MM = Missing Value Source: Averaged Metar Reports

Daily Weather History Graph

Daily Weather History Graph

Search for Another Location

Airport or City:

Trip Planner

Search our weather history database for the weather conditions in past years. The results will help you decide how hot, cold, wet, or windy it might be!

Date:

Astronomy

Nov. 14, 2013 Rise Set
Actual Time 7:48 AM GMT 4:03 PM GMT
Civil Twilight 7:06 AM GMT 4:46 PM GMT
Nautical Twilight 6:19 AM GMT 5:32 PM GMT
Astronomical Twilight 5:35 AM GMT 6:16 PM GMT
Moon 2:46 PM GMT (11/14) 3:54 AM GMT (11/14)
Length of Visible Light 9h 40m
Length of Day
8h 14m
Waxing Gibbous, 90% of the Moon is Illuminated
Nov 14
Waxing Gibbous
Nov 17
Full
Nov 25
Last Quarter
Dec 3
New
Dec 9
First Quarter

Hourly Weather History & Observations

Time (GMT) Temp. Windchill Dew Point Humidity Pressure Visibility Wind Dir Wind Speed Gust Speed Precip Events Conditions
7:20 AM 42.8 °F 35.1 °F 35.6 °F 76% 29.95 in 6.2 mi West 16.1 mph - N/A   Partly Cloudy
7:50 AM 42.8 °F 34.5 °F 35.6 °F 76% 29.95 in 6.2 mi WSW 18.4 mph - N/A   Partly Cloudy
8:20 AM 42.8 °F 33.8 °F 35.6 °F 76% 29.98 in 6.2 mi WSW 21.9 mph - N/A   Partly Cloudy
8:50 AM 42.8 °F 35.1 °F 37.4 °F 81% 30.01 in 6.2 mi WSW 16.1 mph - N/A   Partly Cloudy
9:50 AM 44.6 °F 37.8 °F 35.6 °F 71% 30.04 in 6.2 mi WSW 15.0 mph - N/A   Partly Cloudy
10:20 AM 46.4 °F 40.4 °F 35.6 °F 66% 30.06 in 6.2 mi WSW 13.8 mph - N/A   Partly Cloudy
10:50 AM 46.4 °F 40.4 °F 35.6 °F 66% 30.09 in 6.2 mi WSW 13.8 mph - N/A   Partly Cloudy
11:20 AM 46.4 °F 40.1 °F 35.6 °F 66% 30.09 in 6.2 mi West 15.0 mph 26.5 mph N/A   Partly Cloudy
11:50 AM 48.2 °F - 35.6 °F 62% 30.09 in 6.2 mi West 16.1 mph - N/A   Partly Cloudy
12:20 PM 48.2 °F - 37.4 °F 66% 30.12 in 6.2 mi WSW 13.8 mph - N/A   Partly Cloudy
12:50 PM 48.2 °F - 33.8 °F 58% 30.12 in 6.2 mi West 18.4 mph - N/A   Partly Cloudy
1:20 PM 48.2 °F - 35.6 °F 62% 30.15 in 6.2 mi West 16.1 mph - N/A   Partly Cloudy
1:50 PM 46.4 °F 40.1 °F 33.8 °F 62% 30.15 in 6.2 mi West 15.0 mph - N/A   Partly Cloudy
2:20 PM 48.2 °F - 35.6 °F 62% 30.18 in 6.2 mi WSW 15.0 mph - N/A   Partly Cloudy
2:50 PM 46.4 °F 40.7 °F 32.0 °F 57% 30.21 in 6.2 mi WSW 12.7 mph - N/A   Partly Cloudy
3:20 PM 46.4 °F 41.5 °F 30.2 °F 53% 30.21 in 6.2 mi WSW 10.4 mph - N/A   Partly Cloudy
3:50 PM 46.4 °F 41.1 °F 33.8 °F 62% 30.24 in 6.2 mi West 11.5 mph 23.0 mph N/A   Partly Cloudy
4:20 PM 44.6 °F 38.8 °F 32.0 °F 61% 30.27 in 6.2 mi West 11.5 mph - N/A   Partly Cloudy
4:50 PM 44.6 °F 39.7 °F 32.0 °F 61% 30.30 in 6.2 mi West 9.2 mph - N/A   Partly Cloudy
5:20 PM 44.6 °F 37.4 °F 32.0 °F 61% 30.30 in 6.2 mi NW 16.1 mph - N/A   Partly Cloudy
5:50 PM 42.8 °F 37.0 °F 32.0 °F 66% 30.33 in 6.2 mi West 10.4 mph - N/A   Partly Cloudy
6:20 PM 42.8 °F 35.4 °F 32.0 °F 66% 30.36 in 6.2 mi West 15.0 mph - N/A   Partly Cloudy
6:50 PM 39.2 °F 33.6 °F 32.0 °F 75% 30.36 in 6.2 mi West 8.1 mph - N/A   Partly Cloudy
7:20 PM 42.8 °F 40.1 °F 33.8 °F 70% 30.39 in 6.2 mi West 4.6 mph - N/A   Partly Cloudy
7:50 PM 41.0 °F 38.0 °F 33.8 °F 76% 30.39 in 6.2 mi West 4.6 mph - N/A   Partly Cloudy
8:20 PM 39.2 °F 35.9 °F 32.0 °F 75% 30.39 in 6.2 mi WSW 4.6 mph - N/A   Partly Cloudy
8:50 PM 39.2 °F 35.9 °F 32.0 °F 75% 30.39 in 6.2 mi WSW 4.6 mph - N/A   Partly Cloudy
9:20 PM 42.8 °F 40.1 °F 35.6 °F 76% 30.42 in 6.2 mi SW 4.6 mph - N/A   Partly Cloudy
9:50 PM 41.0 °F 36.4 °F 33.8 °F 76% 30.42 in 6.2 mi WNW 6.9 mph - N/A   Partly Cloudy